[[{"header":{"parameterUnit":"m.s-1","parameterCategory":1,"la1":30.2991,"la2":30.254,"lo1":-89.0895,"lo2":-89.0444,"dy":0.0017,"dx":0.0017,"nx":28,"ny":28,"refTime":"2024-03-11T21:00:00:Z","depth":0,"parameterNumber":2,"parameterNumberName":"U-component_of_WINDS"},"data":[0,0,0,0,0,0,0,0,0,0,0,0,0,0,0,0,0,0,0,0,0,0,0,0,0,0,0,0,0,0,0,0,0,0,0,0,0,0,0,0,0,0,0,0,0,0,0,0,0,0,0,0,0,0,0,0,0,0,0.1095,0.1096,0,0.115,0.1151,0.1152,0.1214,0.1215,0.1216,0.1216,0.1272,0.1272,0.1273,0,0,0,0,0,0,0,0,0,0,0,0,0,0.1041,0.1042,0.1095,0.1096,0.1096,0.115,0.1151,0.1152,0.1214,0.1215,0.1216,0.1217,0.1271,0.1272,0.1273,0,0,0,0,0,0,0,0,0,0,0,0,0,0.1077,0.1042,0.1095,0.1134,0.1138,0.115,0.1151,0.1152,0.1213,0.1215,0.1216,0.1217,0.1271,0.1272,0.1273,0.1251,0,0,0.1276,0.1276,0,0,0,0,0,0,0,0,0.1075,0.1079,0.1127,0.1131,0.1136,0.1177,0.1152,0.1185,0.1213,0.1185,0.1216,0.1218,0.1239,0.1242,0.125,0.1253,0.1256,0.1276,0.1276,0.1277,0.1277,0,0,0,0,0,0,0,0.1072,0.1077,0.1117,0.1128,0.1133,0.1148,0.1154,0.1159,0.1203,0.1187,0.1192,0.1198,0.1241,0.1249,0.1251,0.1257,0.1276,0.1277,0.1277,0.1277,0.1243,0.1242,0,0,0,0,0,0,0.1064,0.1074,0.1115,0.1119,0.1108,0.1148,0.1155,0.1162,0.1203,0.1211,0.1196,0.12,0.1246,0.125,0.1254,0.1229,0.1277,0.1278,0.1278,0.1245,0.1243,0.1241,0,0,0,0,0,0,0.1063,0.1067,0.1113,0.1098,0.1105,0.1147,0.1154,0.1162,0.117,0.121,0.1218,0.1196,0.1248,0.1252,0.1251,0.1232,0.1278,0.1279,0.1246,0.1244,0.1242,0.1181,0,0,0,0,0,0,0.1061,0.1066,0.1059,0.1097,0.1105,0.111,0.1153,0.1162,0.1171,0.1177,0.1212,0.1219,0.1249,0.1249,0.1252,0.1234,0.1279,0.1248,0.1245,0.1243,0.1184,0.1177,0.117,0,0,0,0,0,0.1059,0.104,0.1058,0.1063,0.1097,0.1108,0.1113,0.1148,0.117,0.1162,0.1188,0.1218,0.1234,0.1248,0.1252,0.1234,0.125,0.1246,0.1243,0.1188,0.1178,0.117,0,0,0,0,0,0,0.0998,0.1045,0.1067,0.1059,0.1079,0.1119,0.111,0.1137,0.1151,0.1156,0.1199,0.1206,0.1199,0.1217,0.1232,0.1214,0.1246,0.1243,0.1203,0.1194,0.1187,0.1182,0.128,0,0,0,0,0,0.0984,0.0989,0.1031,0.102,0.1029,0.1068,0.1074,0.11,0.1122,0.1131,0.1156,0.1176,0.1186,0.1191,0.1202,0.1188,0.1195,0.1177,0.117,0.1164,0.116,0.1152,0.1144,0.1231,0.1231,0.1231,0,0,0.0954,0.0981,0.0982,0.1008,0.1027,0.1031,0.1074,0.1077,0.1081,0.1131,0.1131,0.115,0.1175,0.1167,0.1164,0.1181,0.1138,0.1159,0.1154,0.1154,0.1148,0.114,0.1132,0.1228,0.1229,0.1229,0,0,0.0902,0.0923,0.0916,0.0934,0.0961,0.0987,0.0985,0.1021,0.1035,0.1036,0.1073,0.1078,0.1094,0.1109,0.1119,0.1072,0.11,0.1075,0.1036,0.1027,0.102,0.1015,0.0996,0.0989,0.1071,0.1071,0.1071,0,0.0861,0.087,0.0909,0.0909,0.0919,0.0965,0.0957,0.0972,0.1002,0.1007,0.1026,0.1046,0.1066,0.1061,0.1049,0.1057,0.1055,0.107,0.1019,0.1013,0.1008,0.0991,0.0984,0.1068,0.1068,0.1069,0.1069,0,0.0818,0.0823,0.0814,0.0841,0.085,0.0846,0.0884,0.0888,0.0912,0.0936,0.0935,0.0961,0.0977,0.0978,0.1002,0.0976,0.0985,0.1011,0.1043,0.0996,0.098,0.0974,0.1063,0.1064,0.1065,0.1066,0,0,0.0728,0.0777,0.0773,0.0785,0.0818,0.0823,0.082,0.0837,0.0839,0.0857,0.0855,0.0867,0.0891,0.0902,0.0928,0.0921,0.088,0.0947,0.0948,0.0932,0.085,0.083,0.0822,0.0899,0.0898,0.0897,0.0848,0,0.0681,0.068,0.0715,0.0704,0.0708,0.0752,0.075,0.0769,0.0791,0.0797,0.0821,0.0828,0.0859,0.0866,0.0861,0.0886,0.0863,0.089,0.0896,0.0896,0.0887,0.0814,0.0793,0.0745,0.0842,0.0841,0.084,0,0.0626,0.0641,0.063,0.0663,0.0666,0.0663,0.068,0.0686,0.0709,0.0725,0.0737,0.0767,0.0766,0.0798,0.0796,0.0813,0.0818,0.083,0.0829,0.083,0.0864,0.0811,0.0731,0.0723,0.0831,0.0832,0.0833,0,0.0559,0.0577,0.0573,0.0582,0.0621,0.0617,0.0633,0.0658,0.0665,0.0679,0.0684,0.0698,0.0705,0.0715,0.0748,0.0768,0.0742,0.0777,0.0754,0.0753,0.0745,0.0745,0.0663,0.0751,0.0751,0.0751,0.0751,0,0.0502,0.0493,0.0543,0.054,0.0532,0.0571,0.0561,0.0581,0.0602,0.0603,0.0642,0.0642,0.0686,0.069,0.0716,0.0709,0.0713,0.0725,0.0731,0.072,0.0718,0.0723,0.0726,0.0749,0.0749,0.075,0.075,0,0.0425,0.0459,0.0457,0.0493,0.0502,0.0494,0.0525,0.0523,0.0547,0.0548,0.055,0.0587,0.0595,0.0628,0.0644,0.0661,0.0645,0.0659,0.0637,0.0641,0.0616,0.0617,0.0532,0.0522,0.0618,0.0617,0.0616,0,0.0386,0.038,0.0416,0.0419,0.0433,0.0439,0.0446,0.0485,0.049,0.0515,0.051,0.052,0.0531,0.054,0.0568,0.0579,0.0593,0.0563,0.0595,0.0584,0.0591,0.059,0.0589,0.0555,0.0554,0.0553,0.0552,0,0.0311,0.0328,0.0337,0.0352,0.0359,0.0373,0.0388,0.0389,0.0431,0.0436,0.0444,0.0451,0.0467,0.0476,0.0492,0.0508,0.0536,0.0542,0.0537,0.0525,0.0511,0.0517,0.0616,0.0543,0.0544,0.0545,0.0545,0.0546,0.0251,0.0247,0.0272,0.028,0.0296,0.0309,0.0309,0.0333,0.034,0.0356,0.0378,0.0382,0.0404,0.0429,0.0442,0.0445,0.0462,0.0455,0.0453,0.045,0.0444,0.0512,0.0448,0.0449,0.0449,0.0449,0.045,0,0.0177,0.0195,0.0202,0.0222,0.0229,0.0256,0.0274,0.0278,0.0281,0.0299,0.0308,0.0316,0.0325,0.0354,0.0366,0.0363,0.0376,0.0364,0.0364,0.0367,0.0429,0.0432,0.0353,0.0353,0.0353,0.0353,0.0353,0.0353,0.0139,0.0134,0.0153,0.0155,0.0173,0.0178,0.0186,0.0198,0.0212,0.022,0.0227,0.0246,0.0268,0.0281,0.029,0.0298,0.03,0.0283,0.0295,0.0353,0.0362,0.0371,0.0373,0.0284,0.0284,0.0232,0.0232,0.0231]},{"header":{"parameterUnit":"m.s-1","parameterCategory":1,"la1":30.2991,"la2":30.254,"lo1":-89.0895,"lo2":-89.0444,"dy":0.0017,"dx":0.0017,"nx":28,"ny":28,"refTime":"2024-03-11T21:00:00:Z","depth":0,"parameterNumber":3,"parameterNumberName":"V-component_of_WINDS"},"data":[0,0,0,0,0,0,0,0,0,0,0,0,0,0,0,0,0,0,0,0,0,0,0,0,0,0,0,0,0,0,0,0,0,0,0,0,0,0,0,0,0,0,0,0,0,0,0,0,0,0,0,0,0,0,0,0,0,0,1.7615,1.7614,0,1.7569,1.7569,1.7568,1.7532,1.7532,1.7532,1.7531,1.7482,1.7481,1.748,0,0,0,0,0,0,0,0,0,0,0,0,0,1.7667,1.7667,1.7615,1.7614,1.7614,1.7569,1.7569,1.7568,1.7532,1.7532,1.7532,1.7531,1.7482,1.7481,1.748,0,0,0,0,0,0,0,0,0,0,0,0,0,1.7635,1.7666,1.7615,1.7591,1.7588,1.757,1.7569,1.7568,1.7532,1.7532,1.7531,1.7531,1.7482,1.7481,1.7479,1.7481,0,0,1.7475,1.7474,0,0,0,0,0,0,0,0,1.7637,1.7634,1.7595,1.7592,1.7589,1.7556,1.7569,1.7539,1.7533,1.7553,1.7531,1.7531,1.7507,1.7503,1.7496,1.7478,1.7476,1.7475,1.7474,1.7473,1.7473,0,0,0,0,0,0,0,1.764,1.7635,1.7597,1.7594,1.7591,1.7581,1.7576,1.7563,1.7533,1.7552,1.7549,1.7544,1.7505,1.7497,1.7494,1.7475,1.7475,1.7473,1.7472,1.7472,1.7455,1.7456,0,0,0,0,0,0,1.7646,1.7637,1.7598,1.7595,1.7613,1.758,1.7575,1.7567,1.7533,1.7528,1.7545,1.7543,1.75,1.7496,1.7492,1.749,1.7473,1.7472,1.7471,1.7455,1.7455,1.7456,0,0,0,0,0,0,1.7647,1.7643,1.76,1.7616,1.7609,1.758,1.7572,1.7567,1.7559,1.7528,1.7522,1.7542,1.7499,1.7494,1.7484,1.7488,1.7471,1.747,1.7454,1.7455,1.7456,1.7487,0,0,0,0,0,0,1.7649,1.7644,1.7645,1.7616,1.7609,1.7593,1.7572,1.7566,1.7557,1.7553,1.7524,1.7519,1.7499,1.7486,1.7482,1.7486,1.7469,1.7454,1.7455,1.7455,1.7486,1.7489,1.7492,0,0,0,0,0,1.7651,1.7655,1.7645,1.764,1.761,1.7594,1.7589,1.7567,1.7557,1.7557,1.7537,1.752,1.7489,1.7485,1.7481,1.7484,1.7453,1.7454,1.7455,1.7484,1.7488,1.7492,0,0,0,0,0,0,1.7684,1.7651,1.7639,1.7634,1.7617,1.7588,1.7587,1.7572,1.7556,1.7554,1.7525,1.7519,1.7511,1.7496,1.7493,1.7482,1.7469,1.7469,1.7492,1.7496,1.7499,1.7502,1.7467,0,0,0,0,0,1.7691,1.7682,1.7653,1.7651,1.7643,1.7617,1.7609,1.7593,1.7574,1.7566,1.7546,1.7527,1.7512,1.7503,1.7489,1.7484,1.7476,1.7484,1.7487,1.7489,1.7489,1.7484,1.7487,1.7459,1.7459,1.7459,0,0,1.7704,1.7685,1.7681,1.7657,1.7642,1.7632,1.7611,1.7602,1.7593,1.7564,1.7553,1.7537,1.7514,1.7506,1.7501,1.7494,1.7496,1.7491,1.7493,1.7491,1.7486,1.7488,1.7491,1.746,1.746,1.746,0,0,1.7724,1.7709,1.7706,1.7691,1.7669,1.7651,1.7651,1.7623,1.7612,1.76,1.7578,1.7567,1.7544,1.7528,1.7517,1.753,1.7513,1.7526,1.7542,1.7537,1.7539,1.7541,1.7545,1.7546,1.7526,1.7527,1.7527,0,1.7744,1.7729,1.7706,1.7698,1.7687,1.7661,1.7657,1.7643,1.7617,1.761,1.7602,1.7571,1.7554,1.7541,1.7544,1.7537,1.7533,1.7529,1.7541,1.7543,1.7544,1.7547,1.7548,1.7528,1.7528,1.7528,1.7528,0,1.7753,1.7743,1.7743,1.7719,1.7709,1.7702,1.7677,1.7669,1.7654,1.7637,1.7625,1.7603,1.7583,1.7579,1.7564,1.7564,1.7559,1.7547,1.7532,1.7549,1.7551,1.7552,1.7531,1.753,1.7529,1.7529,0,0,1.7792,1.7755,1.7756,1.7744,1.7717,1.7709,1.7701,1.7682,1.7675,1.7658,1.7649,1.763,1.7618,1.7605,1.7588,1.7584,1.7594,1.7571,1.757,1.7575,1.7591,1.76,1.7602,1.7583,1.7583,1.7584,1.7593,0,1.7806,1.7792,1.7771,1.7762,1.7752,1.7727,1.772,1.7702,1.7686,1.7674,1.7655,1.7642,1.7627,1.7619,1.7615,1.7594,1.7597,1.7593,1.7574,1.7573,1.7579,1.7604,1.7613,1.7623,1.7594,1.7594,1.7594,0,1.7821,1.7806,1.7797,1.7771,1.7766,1.776,1.7741,1.773,1.7709,1.7697,1.7683,1.7664,1.7653,1.7641,1.7624,1.7622,1.7613,1.7601,1.7601,1.7597,1.7584,1.76,1.7626,1.7627,1.7595,1.7595,1.7595,0,1.7849,1.7826,1.7818,1.7809,1.7778,1.7774,1.7761,1.774,1.7729,1.7712,1.7705,1.7687,1.7676,1.7662,1.7638,1.7631,1.7623,1.7609,1.7612,1.7612,1.761,1.7611,1.7635,1.7606,1.7606,1.7606,1.7606,0,1.7867,1.7862,1.783,1.7824,1.7818,1.7793,1.7787,1.7771,1.7752,1.7742,1.772,1.7711,1.7681,1.7668,1.7649,1.7637,1.7633,1.7622,1.7617,1.7623,1.7625,1.7616,1.7614,1.7607,1.7607,1.7607,1.7607,0,1.7897,1.7875,1.7864,1.7836,1.7829,1.7825,1.78,1.7793,1.7776,1.7764,1.7759,1.7731,1.7715,1.769,1.7666,1.7653,1.7644,1.7636,1.7651,1.7648,1.7652,1.7651,1.767,1.7671,1.7644,1.7644,1.7644,0,1.7909,1.7905,1.7876,1.7869,1.7857,1.7844,1.7834,1.7809,1.7799,1.7775,1.777,1.7752,1.7737,1.7711,1.7688,1.7669,1.766,1.7668,1.7656,1.7663,1.7658,1.7658,1.7657,1.767,1.767,1.7671,1.7671,0,1.7933,1.7922,1.7909,1.7892,1.788,1.7865,1.7849,1.7843,1.7815,1.7804,1.7788,1.7775,1.7751,1.7733,1.7711,1.7695,1.7678,1.7675,1.7674,1.768,1.7689,1.7683,1.7657,1.7674,1.7674,1.7674,1.7673,1.7673,1.7953,1.7948,1.7927,1.7913,1.7898,1.7883,1.7875,1.7857,1.7843,1.7822,1.7808,1.7792,1.7769,1.7738,1.7724,1.771,1.7702,1.7702,1.7701,1.7701,1.7703,1.7692,1.7706,1.7705,1.7705,1.7705,1.7705,0,1.7975,1.796,1.7947,1.7926,1.7914,1.79,1.7881,1.7872,1.7858,1.7839,1.7825,1.7805,1.7787,1.7762,1.7742,1.7736,1.7727,1.7731,1.7731,1.7727,1.7712,1.7714,1.7738,1.7738,1.7738,1.7738,1.7738,1.7738,1.7985,1.7975,1.7962,1.7944,1.7929,1.7914,1.7904,1.789,1.7875,1.7854,1.7839,1.7824,1.7802,1.778,1.7763,1.7756,1.7749,1.7755,1.7746,1.7731,1.7728,1.7725,1.7727,1.7754,1.7754,1.7762,1.7762,1.7762]}]]